Grand Rapids, MI

6:15 PM EDT on March 24, 2017 (GMT -0400)
Gerald R. Ford International

Weather History for KGRR - December, 2013

Change the Weather History Date:

Tuesday, December 24, 2013

  Actual Average Record
Temperature  
Mean Temperature 14 °F 27 °F  
Max Temperature 19 °F 33 °F 59 °F (2015)
Min Temperature 8 °F 21 °F -9 °F (1944)
Degree Days  
Heating Degree Days 51 38  
Month to date heating degree days 926 838  
Since 1 July heating degree days 2248 2176  
Cooling Degree Days 0 0  
Month to date cooling degree days 0 0  
Year to date cooling degree days 767 699  
Moisture  
Dew Point 11 °F    
Average Humidity 83    
Maximum Humidity 92    
Minimum Humidity 73    
Precipitation  
Precipitation 0.02 in 0.07 in 1.79 in (1979)
Month to date precipitation 2.39 1.97  
Year to date precipitation 45.17 37.74  
Snow  
Snow 1.90 in 0.70 in 7.50 in (1993)
Month to date snowfall 28.1 16.3  
Since 1 July snowfall 30.3 23.6  
Snow Depth 9.00 in    
Sea Level Pressure  
Sea Level Pressure 30.43 in    
Wind  
Wind Speed 5 mph (South)    
Max Wind Speed 14 mph    
Max Gust Speed 16 mph    
Visibility 6 miles    
Events Snow    
T = Trace of Precipitation, MM = Missing Value Source: NWS Daily Summary

Daily Weather History Graph

Daily Weather History Graph

Search for Another Location

Airport or City:

Trip Planner

Search our weather history database for the weather conditions in past years. The results will help you decide how hot, cold, wet, or windy it might be!

Date:

Astronomy

Dec. 24, 2013 Rise Set
Actual Time 8:11 AM EST 5:12 PM EST
Civil Twilight 7:38 AM EST 5:44 PM EST
Nautical Twilight 7:03 AM EST 6:20 PM EST
Astronomical Twilight 6:28 AM EST 6:55 PM EST
Moon No Moon Rise 11:55 AM EST
Length of Visible Light 10h 06m
Length of Day
9h 01m
Waning Gibbous, 59% of the Moon is Illuminated
Dec 24
Waning Gibbous
Dec 25
Last Quarter
Jan 1
New
Jan 7
First Quarter
Jan 15
Full

Hourly Weather History & Observations

Time (EST) Temp. Windchill Dew Point Humidity Pressure Visibility Wind Dir Wind Speed Gust Speed Precip Events Conditions
12:28 AM 17.6 °F 5.0 °F 12.2 °F 79% 30.29 in 2.5 mi WSW 11.5 mph - 0.00 in Snow Light Snow
12:43 AM 17.6 °F 7.3 °F 12.2 °F 79% 30.29 in 3.0 mi SW 8.1 mph - 0.00 in Snow Light Snow
12:53 AM 17.1 °F 5.0 °F 12.9 °F 84% 30.33 in 4.0 mi SW 10.4 mph - 0.01 in Snow Light Snow
1:53 AM 17.1 °F 6.6 °F 12.0 °F 81% 30.33 in 4.0 mi SSW 8.1 mph - 0.00 in Snow Light Snow
2:00 AM 15.8 °F 6.1 °F 12.2 °F 86% 30.29 in 3.0 mi South 6.9 mph - 0.00 in Snow Light Snow
2:15 AM 15.8 °F 7.2 °F 12.2 °F 86% 30.30 in 2.5 mi SSW 5.8 mph - 0.00 in Snow Light Snow
2:36 AM 15.8 °F 10.2 °F 12.2 °F 86% 30.31 in 1.8 mi SSW 3.5 mph - 0.00 in Snow Light Snow
2:53 AM 16.0 °F 8.8 °F 10.9 °F 81% 30.36 in 1.5 mi SSW 4.6 mph - 0.00 in Snow Light Snow
3:20 AM 15.8 °F 8.6 °F 10.4 °F 79% 30.32 in 2.5 mi South 4.6 mph - 0.00 in Snow Light Snow
3:35 AM 15.8 °F 10.2 °F 10.4 °F 79% 30.32 in 3.0 mi South 3.5 mph - 0.00 in Snow Light Snow
3:41 AM 15.8 °F - 10.4 °F 79% 30.33 in 1.8 mi Calm Calm - 0.00 in Snow Light Snow
3:53 AM 15.1 °F - 10.9 °F 84% 30.37 in 1.5 mi Calm Calm - 0.00 in Snow Light Snow
4:53 AM 15.1 °F - 10.9 °F 84% 30.39 in 1.2 mi Calm Calm - 0.01 in Snow Light Snow
5:19 AM 15.8 °F - 10.4 °F 79% 30.35 in 2.5 mi Calm Calm - 0.00 in Snow Light Snow
5:40 AM 15.8 °F - 10.4 °F 79% 30.36 in 3.0 mi Calm Calm - 0.00 in Snow Light Snow
5:53 AM 15.1 °F - 10.9 °F 84% 30.40 in 5.0 mi Calm Calm - 0.00 in Snow Light Snow
6:53 AM 15.1 °F 7.7 °F 10.0 °F 80% 30.42 in 10.0 mi SSE 4.6 mph - 0.00 in   Overcast
7:53 AM 15.1 °F 7.7 °F 10.9 °F 84% 30.44 in 10.0 mi South 4.6 mph - N/A   Overcast
8:53 AM 12.9 °F 6.9 °F 9.0 °F 84% 30.46 in 9.0 mi SSE 3.5 mph - N/A   Mostly Cloudy
9:53 AM 12.9 °F 6.9 °F 10.0 °F 88% 30.49 in 8.0 mi SSE 3.5 mph - 0.00 in   Overcast
10:26 AM 14.0 °F 6.5 °F 10.4 °F 86% 30.46 in 7.0 mi SW 4.6 mph - N/A   Overcast
10:53 AM 15.1 °F 9.4 °F 12.0 °F 88% 30.51 in 8.0 mi SW 3.5 mph - 0.00 in Snow Light Snow
11:53 AM 14.0 °F 8.2 °F 10.9 °F 88% 30.51 in 8.0 mi SSE 3.5 mph - 0.00 in   Scattered Clouds
12:53 PM 16.0 °F 7.4 °F 12.0 °F 84% 30.50 in 9.0 mi South 5.8 mph - N/A   Scattered Clouds
1:53 PM 17.1 °F 10.0 °F 12.0 °F 81% 30.51 in 10.0 mi SSW 4.6 mph - N/A   Mostly Cloudy
2:53 PM 18.0 °F 11.1 °F 12.9 °F 81% 30.50 in 10.0 mi SSW 4.6 mph - N/A   Scattered Clouds
3:53 PM 19.0 °F 10.0 °F 12.9 °F 77% 30.51 in 10.0 mi SSW 6.9 mph - N/A   Scattered Clouds
4:18 PM 19.4 °F 12.8 °F 14.0 °F 80% 30.47 in 9.0 mi SSW 4.6 mph - 0.00 in Snow Light Snow
4:33 PM 19.4 °F 14.3 °F 14.0 °F 80% 30.47 in 7.0 mi South 3.5 mph - 0.00 in Snow Light Snow
4:53 PM 18.0 °F 12.7 °F 12.9 °F 81% 30.52 in 6.0 mi South 3.5 mph - 0.00 in Snow Light Snow
5:08 PM 17.6 °F 10.7 °F 14.0 °F 86% 30.46 in 1.5 mi South 4.6 mph - 0.00 in Snow Light Snow
5:18 PM 17.6 °F 9.3 °F 14.0 °F 86% 30.47 in 0.8 mi South 5.8 mph - 0.00 in Snow Light Snow
5:32 PM 19.4 °F 11.5 °F 14.0 °F 80% 30.47 in 3.0 mi South 5.8 mph - 0.00 in Snow Light Snow
5:53 PM 19.0 °F 11.1 °F 15.1 °F 85% 30.52 in 4.0 mi South 5.8 mph - 0.00 in Snow Light Snow
6:20 PM 19.4 °F 11.5 °F 15.8 °F 86% 30.47 in 9.0 mi South 5.8 mph - 0.00 in Snow Light Snow
6:53 PM 18.0 °F 9.8 °F 12.9 °F 81% 30.52 in 10.0 mi South 5.8 mph - 0.00 in   Overcast
7:42 PM 14.0 °F 3.9 °F 10.4 °F 86% 30.47 in 10.0 mi South 6.9 mph - N/A   Scattered Clouds
7:53 PM 12.9 °F 2.6 °F 9.0 °F 84% 30.52 in 7.0 mi SSE 6.9 mph - 0.00 in Snow Light Snow
8:53 PM 10.9 °F 1.4 °F 8.1 °F 88% 30.51 in 6.0 mi SSE 5.8 mph - 0.00 in   Partly Cloudy
9:53 PM 10.0 °F 0.4 °F 7.0 °F 87% 30.51 in 7.0 mi SSE 5.8 mph - N/A   Partly Cloudy
10:53 PM 10.0 °F -1.9 °F 5.0 °F 80% 30.49 in 9.0 mi SSE 8.1 mph - N/A   Mostly Cloudy
11:53 PM 10.9 °F -0.8 °F 6.1 °F 81% 30.49 in 9.0 mi South 8.1 mph - N/A   Overcast